| time (UTC) | temp C | wind direction | speed KPH | gust KPH | rain 1hr cm | rain 24hr cm | rain mn cm | humidity % | barometer mb |
| 20260510164517 | 17 | 23 | 11.3 | 22.5 | 0.00 | 0.00 | 0.00 | 32 | 1019.5 |
| 20260510163517 | 17 | 135 | 8.0 | 14.5 | 0.00 | 0.00 | 0.00 | 33 | 1019.6 |
| 20260510162517 | 17 | 158 | 11.3 | 22.5 | 0.00 | 0.00 | 0.00 | 33 | 1019.7 |
| 20260510161537 | 16 | 135 | 8.0 | 14.5 | 0.00 | 0.00 | 0.00 | 35 | 1019.4 |
| 20260510160517 | 16 | 0 | 9.7 | 24.1 | 0.00 | 0.00 | 0.00 | 35 | 1019.3 |
| 20260510155517 | 16 | 158 | 11.3 | 20.9 | 0.00 | 0.00 | 0.00 | 34 | 1019.4 |
| 20260510154517 | 15 | 135 | 9.7 | 27.4 | 0.00 | 0.00 | 0.00 | 35 | 1019.3 |
| 20260510153517 | 15 | 135 | 8.0 | 14.5 | 0.00 | 0.00 | 0.00 | 35 | 1019.4 |
| 20260510152517 | 15 | 135 | 9.7 | 25.7 | 0.00 | 0.00 | 0.00 | 37 | 1019.3 |
| 20260510151517 | 14 | 135 | 9.7 | 19.3 | 0.00 | 0.00 | 0.00 | 37 | 1019.3 |
| 20260510150517 | 13 | 135 | 9.7 | 17.7 | 0.00 | 0.00 | 0.00 | 39 | 1019.3 |
| 20260510145517 | 13 | 135 | 8.0 | 16.1 | 0.00 | 0.00 | 0.00 | 39 | 1019.3 |
| 20260510144517 | 13 | 0 | 8.0 | 17.7 | 0.00 | 0.00 | 0.00 | 39 | 1019.3 |
| 20260510143517 | 13 | 0 | 11.3 | 20.9 | 0.00 | 0.00 | 0.00 | 40 | 1019.3 |
| 20260510142517 | 13 | 0 | 8.0 | 16.1 | 0.00 | 0.00 | 0.00 | 41 | 1019.4 |
| 20260510141517 | 14 | 0 | 8.0 | 16.1 | 0.00 | 0.00 | 0.00 | 41 | 1019.4 |
| 20260510140517 | 13 | 135 | 4.8 | 11.3 | 0.00 | 0.00 | 0.00 | 41 | 1019.3 |
| 20260510135517 | 13 | 135 | 4.8 | 8.0 | 0.00 | 0.00 | 0.00 | 42 | 1019.2 |
| 20260510134517 | 13 | 113 | 4.8 | 17.7 | 0.00 | 0.00 | 0.00 | 43 | 1019.1 |
| 20260510133517 | 12 | 113 | 4.8 | 11.3 | 0.00 | 0.00 | 0.00 | 45 | 1019.0 |
| 20260510132557 | 11 | 113 | 3.2 | 12.9 | 0.00 | 0.00 | 0.00 | 47 | 1019.0 |
| 20260510131517 | 10 | 113 | 4.8 | 6.4 | 0.00 | 0.00 | 0.00 | 49 | 1018.9 |
| 20260510130518 | 10 | 135 | 4.8 | 9.7 | 0.00 | 0.00 | 0.00 | 52 | 1018.9 |
| 20260510125538 | 8 | 135 | 3.2 | 6.4 | 0.00 | 0.00 | 0.00 | 55 | 1018.9 |
| 20260510124517 | 7 | 0.0 | 3.2 | 0.00 | 0.00 | 0.00 | 57 | 1018.8 | |
| 20260510123517 | 7 | 68 | 1.6 | 4.8 | 0.00 | 0.00 | 0.00 | 58 | 1018.6 |
| 20260510122537 | 6 | 0.0 | 0.0 | 0.00 | 0.00 | 0.00 | 60 | 1018.6 | |
| 20260510121517 | 5 | 0.0 | 3.2 | 0.00 | 0.00 | 0.00 | 61 | 1018.5 | |
| 20260510120518 | 5 | 0.0 | 0.0 | 0.00 | 0.00 | 0.00 | 62 | 1018.3 | |
| 20260510115519 | 5 | 0.0 | 0.0 | 0.00 | 0.00 | 0.00 | 62 | 1018.2 | |
| 20260510114517 | 5 | 0.0 | 0.0 | 0.00 | 0.00 | 0.00 | 62 | 1018.2 | |
| 20260510113517 | 5 | 0.0 | 0.0 | 0.00 | 0.00 | 0.00 | 61 | 1018.2 | |
| 20260510112518 | 5 | 0.0 | 0.0 | 0.00 | 0.00 | 0.00 | 60 | 1018.1 | |
| 20260510111517 | 5 | 0.0 | 0.0 | 0.00 | 0.00 | 0.00 | 60 | 1018.2 | |
| 20260510110537 | 5 | 0.0 | 0.0 | 0.00 | 0.00 | 0.00 | 59 | 1018.1 | |
| 20260510105517 | 5 | 0.0 | 0.0 | 0.00 | 0.00 | 0.00 | 59 | 1018.2 | |
| 20260510104538 | 5 | 0.0 | 0.0 | 0.00 | 0.00 | 0.00 | 59 | 1018.1 | |
| 20260510103518 | 5 | 0.0 | 0.0 | 0.00 | 0.00 | 0.00 | 60 | 1018.1 | |
| 20260510102517 | 4 | 0.0 | 0.0 | 0.00 | 0.00 | 0.00 | 61 | 1017.9 | |
| 20260510101557 | 4 | 135 | 1.6 | 6.4 | 0.00 | 0.00 | 0.00 | 63 | 1018.0 |
| 20260510100517 | 3 | 135 | 3.2 | 4.8 | 0.00 | 0.00 | 0.00 | 64 | 1017.8 |
| 20260510095517 | 3 | 135 | 1.6 | 4.8 | 0.00 | 0.00 | 0.00 | 64 | 1017.7 |
| 20260510094517 | 3 | 0.0 | 0.0 | 0.00 | 0.00 | 0.00 | 65 | 1017.6 | |
| 20260510093517 | 3 | 0.0 | 0.0 | 0.00 | 0.00 | 0.00 | 65 | 1017.5 | |
| 20260510092557 | 3 | 0.0 | 0.0 | 0.00 | 0.00 | 0.00 | 64 | 1017.4 | |
| 20260510091517 | 3 | 0.0 | 0.0 | 0.00 | 0.00 | 0.00 | 65 | 1017.2 | |
| 20260510090517 | 4 | 0.0 | 0.0 | 0.00 | 0.00 | 0.00 | 65 | 1017.0 | |
| 20260510085517 | 4 | 0.0 | 0.0 | 0.00 | 0.00 | 0.00 | 63 | 1017.1 | |
| 20260510084519 | 4 | 0.0 | 0.0 | 0.00 | 0.00 | 0.00 | 63 | 1016.8 | |
| 20260510083557 | 4 | 0.0 | 0.0 | 0.00 | 0.00 | 0.00 | 64 | 1016.7 | |
| 20260510082517 | 4 | 0.0 | 0.0 | 0.00 | 0.00 | 0.00 | 63 | 1016.8 | |
| 20260510081537 | 4 | 0.0 | 0.0 | 0.00 | 0.00 | 0.00 | 62 | 1016.5 | |
| 20260510080537 | 5 | 0.0 | 0.0 | 0.00 | 0.00 | 0.00 | 63 | 1016.5 | |
| 20260510075537 | 5 | 0.0 | 0.0 | 0.00 | 0.00 | 0.00 | 62 | 1016.4 | |
| 20260510074517 | 5 | 0.0 | 0.0 | 0.00 | 0.00 | 0.00 | 61 | 1016.5 | |
| 20260510073517 | 5 | 0.0 | 0.0 | 0.00 | 0.00 | 0.00 | 61 | 1016.5 | |
| 20260510072517 | 5 | 0.0 | 0.0 | 0.00 | 0.00 | 0.00 | 61 | 1016.3 | |
| 20260510071517 | 5 | 0.0 | 0.0 | 0.00 | 0.00 | 0.00 | 61 | 1016.4 | |
| 20260510070517 | 5 | 0.0 | 0.0 | 0.00 | 0.00 | 0.00 | 60 | 1016.4 | |
| 20260510065517 | 5 | 0.0 | 0.0 | 0.00 | 0.00 | 0.00 | 59 | 1016.3 | |
| 20260510064537 | 6 | 0.0 | 0.0 | 0.00 | 0.00 | 0.00 | 59 | 1016.4 | |
| 20260510063516 | 6 | 0.0 | 0.0 | 0.00 | 0.00 | 0.00 | 56 | 1016.4 | |
| 20260510062516 | 6 | 0.0 | 0.0 | 0.00 | 0.00 | 0.00 | 55 | 1016.3 | |
| 20260510061517 | 6 | 0.0 | 0.0 | 0.00 | 0.00 | 0.00 | 55 | 1016.3 | |
| 20260510060517 | 6 | 0.0 | 0.0 | 0.00 | 0.00 | 0.00 | 53 | 1016.3 | |
| 20260510055517 | 7 | 0.0 | 0.0 | 0.00 | 0.00 | 0.00 | 51 | 1016.3 | |
| 20260510054517 | 7 | 0.0 | 0.0 | 0.00 | 0.00 | 0.00 | 50 | 1016.2 | |
| 20260510053517 | 7 | 0.0 | 0.0 | 0.00 | 0.00 | 0.00 | 49 | 1016.4 | |
| 20260510052517 | 7 | 0.0 | 0.0 | 0.00 | 0.00 | 0.00 | 48 | 1016.3 | |
| 20260510051517 | 8 | 0.0 | 0.0 | 0.00 | 0.00 | 0.00 | 47 | 1016.0 | |
| 20260510050637 | 8 | 0.0 | 0.0 | 0.00 | 0.00 | 0.00 | 45 | 1015.9 | |
| 20260510045537 | 8 | 0.0 | 0.0 | 0.00 | 0.00 | 0.00 | 44 | 1015.8 | |
| 20260510044537 | 8 | 0.0 | 0.0 | 0.00 | 0.00 | 0.00 | 44 | 1015.7 | |
| 20260510043516 | 9 | 0.0 | 0.0 | 0.00 | 0.00 | 0.00 | 43 | 1015.7 | |
| 20260510042517 | 10 | 0.0 | 0.0 | 0.00 | 0.00 | 0.00 | 43 | 1015.6 | |
| 20260510041517 | 10 | 0.0 | 0.0 | 0.00 | 0.00 | 0.00 | 42 | 1015.6 | |
| 20260510040537 | 10 | 0.0 | 0.0 | 0.00 | 0.00 | 0.00 | 41 | 1015.5 | |
| 20260510035537 | 10 | 0.0 | 0.0 | 0.00 | 0.00 | 0.00 | 40 | 1015.4 | |
| 20260510034517 | 10 | 0.0 | 0.0 | 0.00 | 0.00 | 0.00 | 39 | 1015.2 | |
| 20260510033517 | 11 | 0.0 | 0.0 | 0.00 | 0.00 | 0.00 | 39 | 1015.2 | |
| 20260510032519 | 11 | 0.0 | 0.0 | 0.00 | 0.00 | 0.00 | 38 | 1015.2 | |
| 20260510031517 | 11 | 0.0 | 0.0 | 0.00 | 0.00 | 0.00 | 38 | 1015.1 | |
| 20260510030517 | 11 | 0.0 | 1.6 | 0.00 | 0.00 | 0.00 | 37 | 1015.1 | |
| 20260510025517 | 12 | 158 | 1.6 | 4.8 | 0.00 | 0.00 | 0.00 | 36 | 1014.8 |
| 20260510024537 | 12 | 158 | 1.6 | 4.8 | 0.00 | 0.00 | 0.00 | 36 | 1014.6 |
| 20260510023537 | 12 | 158 | 3.2 | 6.4 | 0.00 | 0.00 | 0.00 | 35 | 1014.4 |
| 20260510022517 | 12 | 158 | 1.6 | 8.0 | 0.00 | 0.00 | 0.00 | 35 | 1014.2 |
| 20260510021517 | 12 | 158 | 3.2 | 8.0 | 0.00 | 0.00 | 0.00 | 35 | 1013.9 |
| 20260510020517 | 13 | 0 | 4.8 | 9.7 | 0.00 | 0.00 | 0.00 | 34 | 1013.8 |
| 20260510015517 | 13 | 135 | 4.8 | 8.0 | 0.00 | 0.00 | 0.00 | 33 | 1013.6 |
| 20260510014516 | 13 | 135 | 4.8 | 11.3 | 0.00 | 0.00 | 0.00 | 32 | 1013.3 |
| 20260510013517 | 13 | 0 | 4.8 | 12.9 | 0.00 | 0.00 | 0.00 | 31 | 1013.1 |
| 20260510012537 | 14 | 158 | 6.4 | 12.9 | 0.00 | 0.00 | 0.00 | 30 | 1013.0 |
| 20260510011517 | 14 | 135 | 8.0 | 17.7 | 0.00 | 0.00 | 0.00 | 30 | 1012.8 |
| 20260510010537 | 15 | 135 | 8.0 | 16.1 | 0.00 | 0.00 | 0.00 | 29 | 1012.6 |
| 20260510005517 | 15 | 135 | 8.0 | 16.1 | 0.00 | 0.00 | 0.00 | 28 | 1012.5 |
| 20260510004517 | 15 | 135 | 8.0 | 19.3 | 0.00 | 0.00 | 0.00 | 28 | 1012.3 |
| 20260510003516 | 15 | 158 | 6.4 | 16.1 | 0.00 | 0.00 | 0.00 | 28 | 1012.2 |
| 20260510002516 | 15 | 158 | 6.4 | 14.5 | 0.00 | 0.00 | 0.00 | 27 | 1012.1 |
| 20260510001517 | 15 | 158 | 9.7 | 19.3 | 0.00 | 0.00 | 0.00 | 25 | 1011.9 |
| 20260510000517 | 15 | 135 | 9.7 | 24.1 | 0.00 | 0.00 | 0.00 | 25 | 1011.8 |
| 20260509235517 | 16 | 135 | 9.7 | 24.1 | 0.00 | 0.00 | 0.00 | 25 | 1011.8 |
| 20260509234517 | 16 | 158 | 12.9 | 22.5 | 0.00 | 0.00 | 0.00 | 26 | 1011.7 |
| 20260509233517 | 16 | 158 | 11.3 | 25.7 | 0.00 | 0.00 | 0.00 | 26 | 1011.7 |
| 20260509232517 | 16 | 158 | 12.9 | 29.0 | 0.00 | 0.00 | 0.00 | 25 | 1011.5 |
| 20260509231516 | 16 | 135 | 11.3 | 19.3 | 0.00 | 0.00 | 0.00 | 25 | 1011.3 |
| 20260509230517 | 16 | 0 | 9.7 | 17.7 | 0.00 | 0.00 | 0.00 | 26 | 1011.2 |
| 20260509225516 | 16 | 158 | 14.5 | 27.4 | 0.00 | 0.00 | 0.00 | 25 | 1011.1 |
| 20260509224517 | 16 | 158 | 11.3 | 25.7 | 0.00 | 0.00 | 0.00 | 24 | 1010.8 |
| 20260509223516 | 17 | 0 | 11.3 | 22.5 | 0.00 | 0.00 | 0.00 | 25 | 1010.7 |
| 20260509222516 | 17 | 135 | 12.9 | 29.0 | 0.00 | 0.00 | 0.00 | 25 | 1010.6 |
| 20260509221536 | 17 | 158 | 14.5 | 27.4 | 0.00 | 0.00 | 0.00 | 24 | 1010.5 |
| 20260509220517 | 17 | 135 | 14.5 | 25.7 | 0.00 | 0.00 | 0.00 | 23 | 1010.5 |
| 20260509215517 | 17 | 135 | 12.9 | 33.8 | 0.00 | 0.00 | 0.00 | 23 | 1010.6 |
| 20260509214516 | 17 | 135 | 12.9 | 24.1 | 0.00 | 0.00 | 0.00 | 24 | 1010.4 |
| 20260509213556 | 17 | 158 | 12.9 | 27.4 | 0.00 | 0.00 | 0.00 | 23 | 1010.3 |
| 20260509212536 | 17 | 135 | 14.5 | 29.0 | 0.00 | 0.00 | 0.00 | 22 | 1010.2 |
| 20260509211516 | 17 | 158 | 11.3 | 29.0 | 0.00 | 0.00 | 0.00 | 25 | 1010.1 |
| 20260509210516 | 17 | 158 | 17.7 | 33.8 | 0.00 | 0.00 | 0.00 | 22 | 1010.0 |
| 20260509205537 | 18 | 158 | 16.1 | 29.0 | 0.00 | 0.00 | 0.00 | 22 | 1009.9 |
| 20260509204516 | 18 | 158 | 14.5 | 33.8 | 0.00 | 0.00 | 0.00 | 22 | 1009.8 |
| 20260509203516 | 18 | 135 | 12.9 | 27.4 | 0.00 | 0.00 | 0.00 | 25 | 1009.6 |
| 20260509202517 | 18 | 158 | 12.9 | 33.8 | 0.00 | 0.00 | 0.00 | 25 | 1009.6 |
| 20260509201516 | 18 | 158 | 12.9 | 30.6 | 0.00 | 0.00 | 0.00 | 26 | 1009.6 |
| 20260509200516 | 18 | 158 | 12.9 | 25.7 | 0.00 | 0.00 | 0.00 | 26 | 1009.5 |
| 20260509195516 | 18 | 135 | 14.5 | 27.4 | 0.00 | 0.00 | 0.00 | 27 | 1009.4 |
| 20260509194516 | 18 | 135 | 12.9 | 33.8 | 0.00 | 0.00 | 0.00 | 28 | 1009.3 |
| 20260509193517 | 18 | 135 | 14.5 | 30.6 | 0.00 | 0.00 | 0.00 | 26 | 1009.3 |
| 20260509192517 | 18 | 135 | 14.5 | 27.4 | 0.00 | 0.00 | 0.00 | 27 | 1009.2 |
| 20260509191516 | 18 | 158 | 14.5 | 27.4 | 0.00 | 0.00 | 0.00 | 28 | 1009.2 |
| 20260509190516 | 17 | 158 | 14.5 | 30.6 | 0.00 | 0.00 | 0.00 | 28 | 1009.1 |
| 20260509185536 | 18 | 158 | 14.5 | 22.5 | 0.00 | 0.00 | 0.00 | 28 | 1009.1 |
| 20260509184556 | 18 | 158 | 12.9 | 35.4 | 0.00 | 0.00 | 0.00 | 27 | 1009.1 |
| 20260509183536 | 18 | 135 | 14.5 | 25.7 | 0.00 | 0.00 | 0.00 | 28 | 1009.0 |
| 20260509182516 | 18 | 158 | 12.9 | 22.5 | 0.00 | 0.00 | 0.00 | 31 | 1008.8 |
| 20260509181516 | 18 | 158 | 16.1 | 30.6 | 0.00 | 0.00 | 0.00 | 29 | 1008.8 |
| 20260509180516 | 18 | 158 | 14.5 | 37.0 | 0.00 | 0.00 | 0.00 | 31 | 1008.9 |
| 20260509175516 | 18 | 135 | 11.3 | 22.5 | 0.00 | 0.00 | 0.00 | 31 | 1008.9 |
| 20260509174536 | 17 | 135 | 12.9 | 27.4 | 0.00 | 0.00 | 0.00 | 33 | 1008.7 |
| 20260509173516 | 17 | 158 | 17.7 | 30.6 | 0.00 | 0.00 | 0.00 | 32 | 1008.7 |
| 20260509172516 | 17 | 158 | 16.1 | 37.0 | 0.00 | 0.00 | 0.00 | 32 | 1008.7 |
| 20260509171537 | 17 | 158 | 14.5 | 30.6 | 0.00 | 0.00 | 0.00 | 35 | 1008.6 |
| 20260509170516 | 17 | 135 | 16.1 | 29.0 | 0.00 | 0.00 | 0.00 | 34 | 1008.7 |
| 20260509165516 | 17 | 135 | 11.3 | 19.3 | 0.00 | 0.00 | 0.00 | 35 | 1008.7 |